TimeCST,TemperatureF,Dew PointF,Humidity,Sea Level PressureIn,VisibilityMPH,Wind Direction,Wind SpeedMPH,Gust SpeedMPH,PrecipitationIn,Events,Conditions,WindDirDegrees,DateUTC
12:15 AM,32.0,32.0,100,30.37,10.0,Calm,Calm,-,N/A,,Clear,0,2013-11-07 06:15:00
12:35 AM,30.2,30.2,100,30.37,10.0,Calm,Calm,-,N/A,,Clear,0,2013-11-07 06:35:00
12:55 AM,30.2,30.2,100,30.38,10.0,Calm,Calm,-,N/A,,Clear,0,2013-11-07 06:55:00
1:15 AM,32.0,32.0,100,30.39,10.0,Calm,Calm,-,N/A,,Clear,0,2013-11-07 07:15:00
1:55 AM,30.2,30.2,100,30.39,7.0,Calm,Calm,-,N/A,,Clear,0,2013-11-07 07:55:00
2:15 AM,30.2,30.2,100,30.39,7.0,Calm,Calm,-,N/A,,Clear,0,2013-11-07 08:15:00
2:35 AM,30.2,30.2,100,30.39,7.0,Calm,Calm,-,N/A,,Clear,0,2013-11-07 08:35:00
2:55 AM,30.2,30.2,100,30.39,10.0,Calm,Calm,-,N/A,,Clear,0,2013-11-07 08:55:00
3:15 AM,30.2,30.2,100,30.40,10.0,Calm,Calm,-,N/A,,Clear,0,2013-11-07 09:15:00
3:35 AM,30.2,30.2,100,30.41,10.0,Calm,Calm,-,N/A,,Clear,0,2013-11-07 09:35:00
3:55 AM,30.2,30.2,100,30.42,10.0,Calm,Calm,-,N/A,,Clear,0,2013-11-07 09:55:00
4:15 AM,30.2,30.2,100,30.41,7.0,Calm,Calm,-,N/A,,Clear,0,2013-11-07 10:15:00
4:35 AM,28.4,28.4,100,30.41,10.0,Calm,Calm,-,N/A,,Clear,0,2013-11-07 10:35:00
4:55 AM,28.4,28.4,100,30.41,10.0,Calm,Calm,-,N/A,,Clear,0,2013-11-07 10:55:00
5:15 AM,30.2,30.2,100,30.42,10.0,Calm,Calm,-,N/A,,Clear,0,2013-11-07 11:15:00
5:35 AM,30.2,30.2,100,30.42,7.0,Calm,Calm,-,N/A,,Clear,0,2013-11-07 11:35:00
5:55 AM,30.2,30.2,100,30.42,7.0,Calm,Calm,-,N/A,,Clear,0,2013-11-07 11:55:00
6:15 AM,28.4,28.4,100,30.43,7.0,Calm,Calm,-,N/A,,Clear,0,2013-11-07 12:15:00
6:35 AM,28.4,28.4,100,30.44,7.0,Calm,Calm,-,N/A,,Clear,0,2013-11-07 12:35:00
6:55 AM,28.4,28.4,100,30.44,7.0,Calm,Calm,-,N/A,,Clear,0,2013-11-07 12:55:00
7:15 AM,30.2,30.2,100,30.45,10.0,Calm,Calm,-,N/A,,Clear,0,2013-11-07 13:15:00
7:35 AM,32.0,32.0,100,30.45,10.0,Calm,Calm,-,N/A,,Clear,0,2013-11-07 13:35:00
7:55 AM,32.0,32.0,100,30.46,10.0,Calm,Calm,-,N/A,,Clear,0,2013-11-07 13:55:00
8:15 AM,33.8,33.8,100,30.46,10.0,Calm,Calm,-,N/A,,Clear,0,2013-11-07 14:15:00
8:35 AM,35.6,35.6,100,30.47,10.0,Calm,Calm,-,N/A,,Clear,0,2013-11-07 14:35:00
8:55 AM,39.2,37.4,93,30.47,10.0,Calm,Calm,-,N/A,,Clear,0,2013-11-07 14:55:00
9:15 AM,41.0,37.4,87,30.47,10.0,Calm,Calm,-,N/A,,Clear,0,2013-11-07 15:15:00
9:35 AM,42.8,37.4,81,30.47,10.0,Calm,Calm,-,N/A,,Clear,0,2013-11-07 15:35:00
9:55 AM,46.4,37.4,71,30.46,10.0,Calm,Calm,-,N/A,,Clear,0,2013-11-07 15:55:00
10:15 AM,46.4,37.4,71,30.47,10.0,Calm,Calm,-,N/A,,Clear,0,2013-11-07 16:15:00
10:35 AM,50.0,39.2,66,30.47,10.0,Calm,Calm,-,N/A,,Clear,0,2013-11-07 16:35:00
10:55 AM,51.8,39.2,62,30.46,10.0,Calm,Calm,-,N/A,,Clear,0,2013-11-07 16:55:00
11:15 AM,53.6,39.2,58,30.45,10.0,Calm,Calm,-,N/A,,Clear,0,2013-11-07 17:15:00
11:35 AM,55.4,37.4,51,30.44,10.0,Calm,Calm,-,N/A,,Clear,0,2013-11-07 17:35:00
11:55 AM,55.4,37.4,51,30.44,10.0,Calm,Calm,-,N/A,,Clear,0,2013-11-07 17:55:00
12:15 PM,59.0,37.4,45,30.43,10.0,Calm,Calm,-,N/A,,Clear,0,2013-11-07 18:15:00
12:35 PM,59.0,37.4,45,30.42,10.0,Calm,Calm,-,N/A,,Clear,0,2013-11-07 18:35:00
12:55 PM,59.0,37.4,45,30.42,10.0,Calm,Calm,-,N/A,,Clear,0,2013-11-07 18:55:00
1:15 PM,59.0,37.4,45,30.41,10.0,WNW,4.6,-,N/A,,Clear,290,2013-11-07 19:15:00
1:35 PM,59.0,37.4,45,30.40,10.0,West,4.6,-,N/A,,Clear,280,2013-11-07 19:35:00
1:55 PM,60.8,37.4,42,30.39,10.0,West,4.6,-,N/A,,Clear,260,2013-11-07 19:55:00
2:15 PM,60.8,37.4,42,30.39,10.0,West,3.5,-,N/A,,Clear,270,2013-11-07 20:15:00
2:35 PM,60.8,37.4,42,30.38,10.0,Calm,Calm,-,N/A,,Clear,0,2013-11-07 20:35:00
2:55 PM,60.8,35.6,39,30.38,10.0,West,5.8,-,N/A,,Clear,260,2013-11-07 20:55:00
3:15 PM,60.8,35.6,39,30.38,10.0,West,4.6,-,N/A,,Clear,280,2013-11-07 21:15:00
3:35 PM,60.8,35.6,39,30.38,10.0,West,5.8,-,N/A,,Clear,270,2013-11-07 21:35:00
3:55 PM,59.0,35.6,42,30.38,10.0,West,4.6,-,N/A,,Clear,270,2013-11-07 21:55:00
4:15 PM,59.0,35.6,42,30.38,10.0,WNW,4.6,-,N/A,,Clear,300,2013-11-07 22:15:00
4:55 PM,55.4,35.6,47,30.38,10.0,Calm,Calm,-,N/A,,Clear,0,2013-11-07 22:55:00
5:15 PM,53.6,35.6,51,30.38,10.0,Calm,Calm,-,N/A,,Clear,0,2013-11-07 23:15:00
5:35 PM,51.8,35.6,54,30.38,10.0,Calm,Calm,-,N/A,,Clear,0,2013-11-07 23:35:00
5:55 PM,46.4,39.2,76,30.39,10.0,Calm,Calm,-,N/A,,Clear,0,2013-11-07 23:55:00
6:15 PM,42.8,39.2,87,30.39,10.0,Calm,Calm,-,N/A,,Clear,0,2013-11-08 00:15:00
6:35 PM,42.8,39.2,87,30.39,10.0,Calm,Calm,-,N/A,,Clear,0,2013-11-08 00:35:00
6:55 PM,41.0,37.4,87,30.39,10.0,Calm,Calm,-,N/A,,Clear,0,2013-11-08 00:55:00
7:15 PM,41.0,37.4,87,30.39,10.0,Calm,Calm,-,N/A,,Clear,0,2013-11-08 01:15:00
7:35 PM,39.2,37.4,93,30.39,10.0,Calm,Calm,-,N/A,,Clear,0,2013-11-08 01:35:00
7:55 PM,37.4,37.4,100,30.39,10.0,Calm,Calm,-,N/A,,Clear,0,2013-11-08 01:55:00
8:15 PM,37.4,35.6,93,30.39,10.0,Calm,Calm,-,N/A,,Clear,0,2013-11-08 02:15:00
8:35 PM,37.4,35.6,93,30.38,10.0,Calm,Calm,-,N/A,,Clear,0,2013-11-08 02:35:00
8:55 PM,37.4,35.6,93,30.38,10.0,Calm,Calm,-,N/A,,Clear,0,2013-11-08 02:55:00
9:15 PM,35.6,35.6,100,30.38,10.0,Calm,Calm,-,N/A,,Clear,0,2013-11-08 03:15:00
9:35 PM,35.6,35.6,100,30.38,10.0,Calm,Calm,-,N/A,,Clear,0,2013-11-08 03:35:00
9:55 PM,35.6,35.6,100,30.38,10.0,Calm,Calm,-,N/A,,Clear,0,2013-11-08 03:55:00
10:15 PM,35.6,35.6,100,30.38,10.0,Calm,Calm,-,N/A,,Clear,0,2013-11-08 04:15:00
10:35 PM,35.6,35.6,100,30.38,10.0,Calm,Calm,-,N/A,,Clear,0,2013-11-08 04:35:00
10:55 PM,35.6,33.8,93,30.37,10.0,Calm,Calm,-,N/A,,Clear,0,2013-11-08 04:55:00
11:15 PM,33.8,33.8,100,30.37,10.0,Calm,Calm,-,N/A,,Clear,0,2013-11-08 05:15:00
11:35 PM,33.8,33.8,100,30.37,10.0,Calm,Calm,-,N/A,,Clear,0,2013-11-08 05:35:00
11:55 PM,35.6,35.6,100,30.36,10.0,Calm,Calm,-,N/A,,Clear,0,2013-11-08 05:55:00